Pagina principale
METAR-TAF:

METAR-TAF

Aeroporti :

Aeroporto di Salerno-Costa d'Amalfi

Salerno, Italia

latitudine: 40-37N, longitudine: 014-55E, altezza: 40 m

Osservazione

Il bollettino è stato emesso 27 minuti fa, alle 15:50 UTC
Vento 8 kt da sud/sud-ovest
Temperature 29°C
Umidità 55%
Pressione 1015 hPa
Visibilità 10 km o più
Nubi sparse ad un'altezza di 4000 ft

METAR: LIRI 181550Z 21008KT 9999 SCT040 29/19 Q1015

Ora: 18:17 (16:17 UTC)


TAF: mancante

Osservazioni e previsioni meteorologiche di più di 4000 aeroporti (messaggi METAR e TAF).

Le stazioni disponibili sono rappresentate dai dischi gialli e rossi sulla carta.

Puntare il mouse per vedere il nome della stazione.

Clicca sopra per visualizzare le osservazioni e previsioni meteorologiche.

Per cambiare la mappa : fare clic sui pulsanti verdi con una croce nera per ingrandire, il pulsante verde con un trattino per diminuire, o sulla freccia verde per le mappe adiacenti.


METAR-TAF: